| time (UTC) | temp F | wind direction | speed MPH | gust MPH | rain 1hr in | rain 24hr in | rain mn in | humidity % | barometer mb |
| 20260507201005 | 77 | 266 | 6.0 | 17.0 | 0.00 | 0.00 | 0.00 | 24 | 1019.9 |
| 20260507200505 | 77 | 292 | 7.0 | 14.0 | 0.00 | 0.00 | 0.00 | 24 | 1019.9 |
| 20260507195504 | 77 | 278 | 6.0 | 14.0 | 0.00 | 0.00 | 0.00 | 26 | 1019.9 |
| 20260507195004 | 76 | 275 | 4.0 | 10.0 | 0.00 | 0.00 | 0.00 | 26 | 1019.9 |
| 20260507194504 | 76 | 275 | 6.0 | 12.0 | 0.00 | 0.00 | 0.00 | 28 | 1020.0 |
| 20260507194004 | 76 | 285 | 6.0 | 14.0 | 0.00 | 0.00 | 0.00 | 26 | 1020.1 |
| 20260507193504 | 76 | 294 | 6.0 | 9.0 | 0.00 | 0.00 | 0.00 | 24 | 1020.2 |
| 20260507192504 | 76 | 285 | 4.0 | 12.0 | 0.00 | 0.00 | 0.00 | 26 | 1020.3 |
| 20260507192005 | 76 | 288 | 3.0 | 9.0 | 0.00 | 0.00 | 0.00 | 26 | 1020.3 |
| 20260507191505 | 76 | 287 | 5.0 | 10.0 | 0.00 | 0.00 | 0.00 | 25 | 1020.3 |
| 20260507191005 | 76 | 270 | 4.0 | 8.0 | 0.00 | 0.00 | 0.00 | 27 | 1020.4 |
| 20260507190504 | 76 | 277 | 5.0 | 9.0 | 0.00 | 0.00 | 0.00 | 26 | 1020.5 |
| 20260507190006 | 76 | 269 | 6.0 | 13.0 | 0.00 | 0.00 | 0.00 | 28 | 1020.5 |
| 20260507185505 | 76 | 275 | 3.0 | 8.0 | 0.00 | 0.00 | 0.00 | 27 | 1020.5 |
| 20260507185004 | 76 | 263 | 4.0 | 13.0 | 0.00 | 0.00 | 0.00 | 28 | 1020.6 |
| 20260507184504 | 76 | 268 | 4.0 | 8.0 | 0.00 | 0.00 | 0.00 | 28 | 1020.8 |
| 20260507184005 | 75 | 260 | 3.0 | 9.0 | 0.00 | 0.00 | 0.00 | 29 | 1020.8 |
| 20260507183504 | 75 | 285 | 3.0 | 7.0 | 0.00 | 0.00 | 0.00 | 31 | 1020.8 |
| 20260507183004 | 74 | 264 | 2.0 | 9.0 | 0.00 | 0.00 | 0.00 | 29 | 1020.9 |
| 20260507182004 | 74 | 0 | 1.0 | 7.0 | 0.00 | 0.00 | 0.00 | 30 | 1020.9 |
| 20260507181504 | 74 | 195 | 1.0 | 6.0 | 0.00 | 0.00 | 0.00 | 30 | 1020.9 |
| 20260507181005 | 74 | 264 | 2.0 | 5.0 | 0.00 | 0.00 | 0.00 | 32 | 1020.9 |
| 20260507180505 | 73 | 294 | 3.0 | 8.0 | 0.00 | 0.00 | 0.00 | 30 | 1020.9 |
| 20260507180005 | 73 | 270 | 2.0 | 5.0 | 0.00 | 0.00 | 0.00 | 32 | 1020.9 |
| 20260507175505 | 72 | 312 | 0.0 | 3.0 | 0.00 | 0.00 | 0.00 | 30 | 1021.0 |
| 20260507175004 | 72 | 205 | 0.0 | 3.0 | 0.00 | 0.00 | 0.00 | 34 | 1020.9 |
| 20260507174506 | 72 | 265 | 0.0 | 3.0 | 0.00 | 0.00 | 0.00 | 34 | 1021.0 |
| 20260507174005 | 72 | 90 | 0.0 | 5.0 | 0.00 | 0.00 | 0.00 | 34 | 1021.0 |
| 20260507173504 | 71 | 172 | 3.0 | 6.0 | 0.00 | 0.00 | 0.00 | 34 | 1021.0 |
| 20260507173005 | 71 | 192 | 0.0 | 3.0 | 0.00 | 0.00 | 0.00 | 35 | 1021.0 |
| 20260507172504 | 71 | 199 | 1.0 | 5.0 | 0.00 | 0.00 | 0.00 | 35 | 1021.0 |
| 20260507172004 | 70 | 196 | 1.0 | 3.0 | 0.00 | 0.00 | 0.00 | 39 | 1021.0 |
| 20260507171505 | 69 | 155 | 0.0 | 7.0 | 0.00 | 0.00 | 0.00 | 37 | 1021.1 |
| 20260507171005 | 69 | 150 | 0.0 | 6.0 | 0.00 | 0.00 | 0.00 | 39 | 1021.1 |
| 20260507170504 | 69 | 138 | 0.0 | 0.0 | 0.00 | 0.00 | 0.00 | 38 | 1021.1 |
| 20260507170005 | 69 | 138 | 0.0 | 0.0 | 0.00 | 0.00 | 0.00 | 39 | 1021.2 |
| 20260507165005 | 68 | 138 | 0.0 | 1.0 | 0.00 | 0.00 | 0.00 | 41 | 1021.1 |
| 20260507164004 | 67 | 14 | 1.0 | 3.0 | 0.00 | 0.00 | 0.00 | 43 | 1021.2 |
| 20260507163505 | 67 | 326 | 1.0 | 3.0 | 0.00 | 0.00 | 0.00 | 45 | 1021.2 |
| 20260507162504 | 66 | 51 | 0.0 | 0.0 | 0.00 | 0.00 | 0.00 | 50 | 1021.2 |
| 20260507162004 | 65 | 51 | 0.0 | 0.0 | 0.00 | 0.00 | 0.00 | 49 | 1021.3 |
| 20260507160505 | 64 | 325 | 0.0 | 3.0 | 0.00 | 0.00 | 0.00 | 53 | 1021.5 |
| 20260507160005 | 63 | 33 | 1.0 | 3.0 | 0.00 | 0.00 | 0.00 | 53 | 1021.4 |
| 20260507155005 | 62 | 282 | 0.0 | 2.0 | 0.00 | 0.00 | 0.00 | 56 | 1021.4 |
| 20260507154505 | 62 | 299 | 1.0 | 3.0 | 0.00 | 0.00 | 0.00 | 55 | 1021.4 |
| 20260507154005 | 61 | 179 | 0.0 | 0.0 | 0.00 | 0.00 | 0.00 | 55 | 1021.5 |
| 20260507153505 | 61 | 324 | 0.0 | 2.0 | 0.00 | 0.00 | 0.00 | 57 | 1021.5 |
| 20260507153004 | 61 | 313 | 1.0 | 2.0 | 0.00 | 0.00 | 0.00 | 57 | 1021.4 |
| 20260507152504 | 60 | 343 | 0.0 | 0.0 | 0.00 | 0.00 | 0.00 | 58 | 1021.5 |
| 20260507151504 | 59 | 343 | 0.0 | 0.0 | 0.00 | 0.00 | 0.00 | 61 | 1021.4 |
| 20260507151004 | 59 | 343 | 0.0 | 0.0 | 0.00 | 0.00 | 0.00 | 64 | 1021.5 |
| 20260507150505 | 58 | 343 | 0.0 | 0.0 | 0.00 | 0.00 | 0.00 | 64 | 1021.5 |
| 20260507150005 | 57 | 343 | 0.0 | 0.0 | 0.00 | 0.00 | 0.00 | 63 | 1021.5 |
| 20260507145504 | 57 | 343 | 0.0 | 0.0 | 0.00 | 0.00 | 0.00 | 66 | 1021.5 |
| 20260507145005 | 56 | 343 | 0.0 | 0.0 | 0.00 | 0.00 | 0.00 | 68 | 1021.5 |
| 20260507143505 | 54 | 343 | 0.0 | 0.0 | 0.00 | 0.00 | 0.00 | 75 | 1021.5 |
| 20260507143004 | 53 | 343 | 0.0 | 0.0 | 0.00 | 0.00 | 0.00 | 75 | 1021.6 |
| 20260507142505 | 53 | 343 | 0.0 | 0.0 | 0.00 | 0.00 | 0.00 | 79 | 1021.5 |
| 20260507142004 | 52 | 343 | 0.0 | 0.0 | 0.00 | 0.00 | 0.00 | 83 | 1021.5 |
| 20260507141505 | 50 | 343 | 0.0 | 0.0 | 0.00 | 0.00 | 0.00 | 84 | 1021.4 |
| 20260507140005 | 48 | 343 | 0.0 | 0.0 | 0.00 | 0.00 | 0.00 | 86 | 1021.4 |
| 20260507135504 | 47 | 343 | 0.0 | 0.0 | 0.00 | 0.00 | 0.00 | 87 | 1021.4 |
| 20260507135004 | 47 | 343 | 0.0 | 0.0 | 0.00 | 0.00 | 0.00 | 88 | 1021.4 |
| 20260507134504 | 46 | 343 | 0.0 | 0.0 | 0.00 | 0.00 | 0.00 | 89 | 1021.2 |
| 20260507134005 | 46 | 343 | 0.0 | 0.0 | 0.00 | 0.00 | 0.00 | 89 | 1021.2 |
| 20260507133504 | 45 | 343 | 0.0 | 0.0 | 0.00 | 0.00 | 0.00 | 89 | 1021.2 |
| 20260507133004 | 45 | 343 | 0.0 | 0.0 | 0.00 | 0.00 | 0.00 | 89 | 1021.1 |
| 20260507132504 | 45 | 343 | 0.0 | 0.0 | 0.00 | 0.00 | 0.00 | 89 | 1021.2 |
| 20260507132004 | 45 | 343 | 0.0 | 0.0 | 0.00 | 0.00 | 0.00 | 89 | 1021.2 |
| 20260507131505 | 45 | 343 | 0.0 | 0.0 | 0.00 | 0.00 | 0.00 | 89 | 1021.2 |
| 20260507131004 | 45 | 343 | 0.0 | 0.0 | 0.00 | 0.00 | 0.00 | 89 | 1021.2 |
| 20260507130505 | 45 | 343 | 0.0 | 0.0 | 0.00 | 0.00 | 0.00 | 89 | 1021.2 |
| 20260507130004 | 44 | 343 | 0.0 | 0.0 | 0.00 | 0.00 | 0.00 | 88 | 1021.2 |
| 20260507125505 | 45 | 343 | 0.0 | 0.0 | 0.00 | 0.00 | 0.00 | 88 | 1021.2 |
| 20260507125004 | 44 | 343 | 0.0 | 0.0 | 0.00 | 0.00 | 0.00 | 88 | 1021.1 |
| 20260507124504 | 45 | 343 | 0.0 | 0.0 | 0.00 | 0.00 | 0.00 | 87 | 1021.1 |
| 20260507124004 | 45 | 343 | 0.0 | 0.0 | 0.00 | 0.00 | 0.00 | 87 | 1021.1 |
| 20260507123505 | 45 | 343 | 0.0 | 0.0 | 0.00 | 0.00 | 0.00 | 86 | 1021.0 |
| 20260507122505 | 45 | 343 | 0.0 | 0.0 | 0.00 | 0.00 | 0.00 | 86 | 1021.0 |
| 20260507122005 | 46 | 343 | 0.0 | 0.0 | 0.00 | 0.00 | 0.00 | 86 | 1021.1 |
| 20260507121505 | 45 | 343 | 0.0 | 0.0 | 0.00 | 0.00 | 0.00 | 86 | 1021.1 |
| 20260507121005 | 46 | 343 | 0.0 | 0.0 | 0.00 | 0.00 | 0.00 | 87 | 1021.0 |
| 20260507120005 | 45 | 343 | 0.0 | 0.0 | 0.00 | 0.00 | 0.00 | 87 | 1021.0 |
| 20260507115504 | 46 | 343 | 0.0 | 0.0 | 0.00 | 0.00 | 0.00 | 86 | 1021.1 |
| 20260507115005 | 46 | 343 | 0.0 | 0.0 | 0.00 | 0.00 | 0.00 | 86 | 1021.0 |
| 20260507114505 | 46 | 343 | 0.0 | 0.0 | 0.00 | 0.00 | 0.00 | 86 | 1021.0 |
| 20260507114004 | 46 | 343 | 0.0 | 0.0 | 0.00 | 0.00 | 0.00 | 85 | 1021.0 |
| 20260507113505 | 46 | 343 | 0.0 | 0.0 | 0.00 | 0.00 | 0.00 | 84 | 1021.1 |
| 20260507113005 | 47 | 343 | 0.0 | 0.0 | 0.00 | 0.00 | 0.00 | 83 | 1021.1 |
| 20260507112505 | 47 | 343 | 0.0 | 0.0 | 0.00 | 0.00 | 0.00 | 82 | 1021.1 |
| 20260507112004 | 48 | 343 | 0.0 | 0.0 | 0.00 | 0.00 | 0.00 | 81 | 1021.1 |
| 20260507111506 | 48 | 343 | 0.0 | 0.0 | 0.00 | 0.00 | 0.00 | 80 | 1021.1 |
| 20260507110504 | 48 | 343 | 0.0 | 0.0 | 0.00 | 0.00 | 0.00 | 79 | 1021.1 |
| 20260507110005 | 48 | 343 | 0.0 | 0.0 | 0.00 | 0.00 | 0.00 | 79 | 1021.1 |
| 20260507105504 | 48 | 343 | 0.0 | 0.0 | 0.00 | 0.00 | 0.00 | 80 | 1021.1 |
| 20260507105005 | 48 | 343 | 0.0 | 0.0 | 0.00 | 0.00 | 0.00 | 80 | 1021.1 |
| 20260507104504 | 48 | 343 | 0.0 | 0.0 | 0.00 | 0.00 | 0.00 | 81 | 1021.1 |
| 20260507104005 | 48 | 343 | 0.0 | 0.0 | 0.00 | 0.00 | 0.00 | 81 | 1021.1 |
| 20260507103505 | 48 | 343 | 0.0 | 0.0 | 0.00 | 0.00 | 0.00 | 81 | 1021.2 |
| 20260507103005 | 47 | 343 | 0.0 | 0.0 | 0.00 | 0.00 | 0.00 | 82 | 1021.1 |
| 20260507102006 | 47 | 343 | 0.0 | 0.0 | 0.00 | 0.00 | 0.00 | 82 | 1021.2 |
| 20260507101504 | 48 | 343 | 0.0 | 0.0 | 0.00 | 0.00 | 0.00 | 81 | 1021.2 |
| 20260507101004 | 48 | 343 | 0.0 | 0.0 | 0.00 | 0.00 | 0.00 | 81 | 1021.2 |
| 20260507100505 | 48 | 343 | 0.0 | 0.0 | 0.00 | 0.00 | 0.00 | 80 | 1021.2 |
| 20260507100005 | 48 | 343 | 0.0 | 0.0 | 0.00 | 0.00 | 0.00 | 80 | 1021.2 |
| 20260507095005 | 49 | 343 | 0.0 | 0.0 | 0.00 | 0.00 | 0.00 | 78 | 1021.2 |
| 20260507094504 | 48 | 343 | 0.0 | 0.0 | 0.00 | 0.00 | 0.00 | 79 | 1021.2 |
| 20260507093504 | 49 | 343 | 0.0 | 0.0 | 0.00 | 0.00 | 0.00 | 79 | 1021.3 |
| 20260507093004 | 49 | 343 | 0.0 | 0.0 | 0.00 | 0.00 | 0.00 | 78 | 1021.2 |
| 20260507092504 | 49 | 343 | 0.0 | 0.0 | 0.00 | 0.00 | 0.00 | 78 | 1021.4 |
| 20260507092004 | 49 | 343 | 0.0 | 0.0 | 0.00 | 0.00 | 0.00 | 79 | 1021.4 |
| 20260507091505 | 49 | 343 | 0.0 | 0.0 | 0.00 | 0.00 | 0.00 | 78 | 1021.3 |
| 20260507091004 | 49 | 343 | 0.0 | 0.0 | 0.00 | 0.00 | 0.00 | 78 | 1021.4 |
| 20260507090505 | 49 | 343 | 0.0 | 0.0 | 0.00 | 0.00 | 0.00 | 76 | 1021.5 |
| 20260507090005 | 50 | 343 | 0.0 | 0.0 | 0.00 | 0.00 | 0.00 | 74 | 1021.5 |
| 20260507085504 | 50 | 343 | 0.0 | 0.0 | 0.00 | 0.00 | 0.00 | 74 | 1021.5 |
| 20260507085005 | 50 | 343 | 0.0 | 0.0 | 0.00 | 0.00 | 0.00 | 74 | 1021.5 |
| 20260507084505 | 50 | 343 | 0.0 | 0.0 | 0.00 | 0.00 | 0.00 | 70 | 1021.5 |
| 20260507084005 | 51 | 343 | 0.0 | 0.0 | 0.00 | 0.00 | 0.00 | 70 | 1021.5 |
| 20260507083505 | 51 | 343 | 0.0 | 0.0 | 0.00 | 0.00 | 0.00 | 71 | 1021.5 |
| 20260507083005 | 51 | 343 | 0.0 | 0.0 | 0.00 | 0.00 | 0.00 | 70 | 1021.5 |
| 20260507082504 | 51 | 343 | 0.0 | 0.0 | 0.00 | 0.00 | 0.00 | 69 | 1021.6 |
| 20260507082004 | 50 | 343 | 0.0 | 0.0 | 0.00 | 0.00 | 0.00 | 72 | 1021.6 |
| 20260507081504 | 51 | 343 | 0.0 | 0.0 | 0.00 | 0.00 | 0.00 | 71 | 1021.6 |
| 20260507081005 | 51 | 343 | 0.0 | 0.0 | 0.00 | 0.00 | 0.00 | 73 | 1021.6 |
| 20260507080504 | 51 | 343 | 0.0 | 0.0 | 0.00 | 0.00 | 0.00 | 71 | 1021.5 |
| 20260507080005 | 51 | 343 | 0.0 | 0.0 | 0.00 | 0.00 | 0.00 | 71 | 1021.4 |
| 20260507075505 | 51 | 343 | 0.0 | 0.0 | 0.00 | 0.00 | 0.00 | 73 | 1021.4 |
| 20260507075005 | 51 | 343 | 0.0 | 0.0 | 0.00 | 0.00 | 0.00 | 72 | 1021.4 |
| 20260507074504 | 52 | 343 | 0.0 | 0.0 | 0.00 | 0.00 | 0.00 | 70 | 1021.4 |
| 20260507074005 | 52 | 343 | 0.0 | 0.0 | 0.00 | 0.00 | 0.00 | 68 | 1021.4 |
| 20260507073505 | 52 | 343 | 0.0 | 0.0 | 0.00 | 0.00 | 0.00 | 67 | 1021.4 |
| 20260507073004 | 52 | 343 | 0.0 | 0.0 | 0.00 | 0.00 | 0.00 | 67 | 1021.4 |
| 20260507072505 | 52 | 343 | 0.0 | 0.0 | 0.00 | 0.00 | 0.00 | 69 | 1021.2 |
| 20260507072005 | 53 | 343 | 0.0 | 0.0 | 0.00 | 0.00 | 0.00 | 68 | 1021.2 |
| 20260507071504 | 53 | 343 | 0.0 | 0.0 | 0.00 | 0.00 | 0.00 | 66 | 1021.2 |
| 20260507071005 | 53 | 343 | 0.0 | 0.0 | 0.00 | 0.00 | 0.00 | 64 | 1021.1 |
| 20260507070505 | 53 | 343 | 0.0 | 0.0 | 0.00 | 0.00 | 0.00 | 65 | 1021.1 |
| 20260507070009 | 52 | 343 | 0.0 | 0.0 | 0.00 | 0.00 | 0.00 | 67 | 1021.1 |
| 20260507065504 | 52 | 343 | 0.0 | 0.0 | 0.00 | 0.00 | 0.00 | 70 | 1021.0 |
| 20260507065004 | 52 | 343 | 0.0 | 0.0 | 0.00 | 0.00 | 0.00 | 71 | 1020.9 |
| 20260507064504 | 52 | 343 | 0.0 | 0.0 | 0.00 | 0.00 | 0.00 | 71 | 1020.9 |
| 20260507063504 | 53 | 343 | 0.0 | 0.0 | 0.00 | 0.00 | 0.00 | 68 | 1020.8 |
| 20260507063004 | 53 | 343 | 0.0 | 0.0 | 0.00 | 0.00 | 0.00 | 67 | 1020.6 |
| 20260507062504 | 53 | 343 | 0.0 | 0.0 | 0.00 | 0.00 | 0.00 | 67 | 1020.6 |
| 20260507062004 | 54 | 343 | 0.0 | 0.0 | 0.00 | 0.00 | 0.00 | 65 | 1020.5 |
| 20260507061504 | 54 | 343 | 0.0 | 0.0 | 0.00 | 0.00 | 0.00 | 66 | 1020.4 |
| 20260507061004 | 54 | 343 | 0.0 | 0.0 | 0.00 | 0.00 | 0.00 | 64 | 1020.4 |
| 20260507060504 | 55 | 343 | 0.0 | 0.0 | 0.00 | 0.00 | 0.00 | 63 | 1020.4 |
| 20260507060004 | 55 | 343 | 0.0 | 0.0 | 0.00 | 0.00 | 0.00 | 59 | 1020.4 |
| 20260507055504 | 55 | 343 | 0.0 | 0.0 | 0.00 | 0.00 | 0.00 | 60 | 1020.5 |
| 20260507055005 | 56 | 343 | 0.0 | 0.0 | 0.00 | 0.00 | 0.00 | 59 | 1020.5 |
| 20260507054505 | 56 | 343 | 0.0 | 0.0 | 0.00 | 0.00 | 0.00 | 58 | 1020.6 |
| 20260507054005 | 56 | 343 | 0.0 | 0.0 | 0.00 | 0.00 | 0.00 | 57 | 1020.7 |
| 20260507052004 | 59 | 343 | 0.0 | 0.0 | 0.00 | 0.00 | 0.00 | 51 | 1021.0 |
| 20260507051504 | 59 | 343 | 0.0 | 0.0 | 0.00 | 0.00 | 0.00 | 48 | 1021.1 |
| 20260507051004 | 59 | 343 | 0.0 | 0.0 | 0.00 | 0.00 | 0.00 | 46 | 1021.1 |
| 20260507050504 | 59 | 343 | 0.0 | 0.0 | 0.00 | 0.00 | 0.00 | 47 | 1021.1 |
| 20260507050005 | 59 | 343 | 0.0 | 0.0 | 0.00 | 0.00 | 0.00 | 46 | 1021.0 |
| 20260507045504 | 59 | 343 | 0.0 | 0.0 | 0.00 | 0.00 | 0.00 | 46 | 1021.0 |
| 20260507044504 | 58 | 343 | 0.0 | 0.0 | 0.00 | 0.00 | 0.00 | 49 | 1020.9 |
| 20260507044005 | 58 | 343 | 0.0 | 0.0 | 0.00 | 0.00 | 0.00 | 51 | 1020.9 |
| 20260507043505 | 59 | 343 | 0.0 | 0.0 | 0.00 | 0.00 | 0.00 | 50 | 1020.9 |
| 20260507043004 | 59 | 343 | 0.0 | 0.0 | 0.00 | 0.00 | 0.00 | 49 | 1020.8 |
| 20260507042004 | 59 | 343 | 0.0 | 0.0 | 0.00 | 0.00 | 0.00 | 49 | 1020.8 |
| 20260507041504 | 59 | 343 | 0.0 | 0.0 | 0.00 | 0.00 | 0.00 | 48 | 1020.8 |
| 20260507041004 | 59 | 343 | 0.0 | 0.0 | 0.00 | 0.00 | 0.00 | 48 | 1020.6 |
| 20260507040505 | 59 | 343 | 0.0 | 0.0 | 0.00 | 0.00 | 0.00 | 50 | 1020.5 |
| 20260507040004 | 60 | 343 | 0.0 | 0.0 | 0.00 | 0.00 | 0.00 | 52 | 1020.4 |
| 20260507035504 | 60 | 343 | 0.0 | 0.0 | 0.00 | 0.00 | 0.00 | 53 | 1020.4 |
| 20260507035004 | 61 | 343 | 0.0 | 0.0 | 0.00 | 0.00 | 0.00 | 52 | 1020.4 |
| 20260507034505 | 61 | 343 | 0.0 | 0.0 | 0.00 | 0.00 | 0.00 | 49 | 1020.3 |
| 20260507034005 | 62 | 343 | 0.0 | 0.0 | 0.00 | 0.00 | 0.00 | 48 | 1020.3 |
| 20260507033504 | 62 | 343 | 0.0 | 0.0 | 0.00 | 0.00 | 0.00 | 48 | 1020.2 |
| 20260507033005 | 63 | 343 | 0.0 | 0.0 | 0.00 | 0.00 | 0.00 | 46 | 1020.2 |
| 20260507032505 | 63 | 343 | 0.0 | 0.0 | 0.00 | 0.00 | 0.00 | 46 | 1020.2 |
| 20260507032004 | 63 | 343 | 0.0 | 0.0 | 0.00 | 0.00 | 0.00 | 50 | 1020.0 |
| 20260507031506 | 63 | 343 | 0.0 | 0.0 | 0.00 | 0.00 | 0.00 | 54 | 1020.0 |
| 20260507031004 | 64 | 343 | 0.0 | 0.0 | 0.00 | 0.00 | 0.00 | 53 | 1020.0 |
| 20260507030504 | 64 | 343 | 0.0 | 0.0 | 0.00 | 0.00 | 0.00 | 51 | 1019.9 |
| 20260507030004 | 65 | 343 | 0.0 | 0.0 | 0.00 | 0.00 | 0.00 | 50 | 1019.9 |
| 20260507025505 | 65 | 343 | 0.0 | 0.0 | 0.00 | 0.00 | 0.00 | 49 | 1019.8 |
| 20260507025004 | 66 | 343 | 0.0 | 0.0 | 0.00 | 0.00 | 0.00 | 47 | 1019.7 |
| 20260507024504 | 66 | 343 | 0.0 | 0.0 | 0.00 | 0.00 | 0.00 | 46 | 1019.8 |
| 20260507024005 | 67 | 343 | 0.0 | 0.0 | 0.00 | 0.00 | 0.00 | 44 | 1019.7 |
| 20260507022504 | 71 | 343 | 0.0 | 0.0 | 0.00 | 0.00 | 0.00 | 37 | 1019.4 |
| 20260507022005 | 72 | 343 | 0.0 | 0.0 | 0.00 | 0.00 | 0.00 | 32 | 1019.4 |
| 20260507021505 | 73 | 343 | 0.0 | 0.0 | 0.00 | 0.00 | 0.00 | 26 | 1019.4 |
| 20260507021005 | 73 | 343 | 0.0 | 0.0 | 0.00 | 0.00 | 0.00 | 22 | 1019.4 |
| 20260507020504 | 74 | 343 | 0.0 | 0.0 | 0.00 | 0.00 | 0.00 | 21 | 1019.4 |
| 20260507020005 | 74 | 343 | 0.0 | 7.0 | 0.00 | 0.00 | 0.00 | 21 | 1019.4 |
| 20260507015505 | 74 | 338 | 2.0 | 6.0 | 0.00 | 0.00 | 0.00 | 21 | 1019.4 |
| 20260507015004 | 74 | 7 | 0.0 | 2.0 | 0.00 | 0.00 | 0.00 | 20 | 1019.4 |
| 20260507014504 | 74 | 344 | 4.0 | 7.0 | 0.00 | 0.00 | 0.00 | 20 | 1019.3 |
| 20260507014004 | 75 | 338 | 1.0 | 8.0 | 0.00 | 0.00 | 0.00 | 20 | 1019.3 |
| 20260507013505 | 74 | 127 | 0.0 | 0.0 | 0.00 | 0.00 | 0.00 | 20 | 1019.3 |
| 20260507013004 | 75 | 127 | 0.0 | 0.0 | 0.00 | 0.00 | 0.00 | 18 | 1019.3 |
| 20260507012504 | 75 | 127 | 1.0 | 6.0 | 0.00 | 0.00 | 0.00 | 17 | 1019.3 |
| 20260507012004 | 75 | 264 | 0.0 | 0.0 | 0.00 | 0.00 | 0.00 | 18 | 1019.3 |
| 20260507011504 | 76 | 264 | 0.0 | 8.0 | 0.00 | 0.00 | 0.00 | 19 | 1019.3 |
| 20260507010504 | 76 | 20 | 0.0 | 6.0 | 0.00 | 0.00 | 0.00 | 17 | 1019.4 |
| 20260507005504 | 76 | 11 | 1.0 | 6.0 | 0.00 | 0.00 | 0.00 | 17 | 1019.4 |
| 20260507005004 | 76 | 83 | 1.0 | 6.0 | 0.00 | 0.00 | 0.00 | 16 | 1019.4 |
| 20260507004504 | 76 | 357 | 3.0 | 8.0 | 0.00 | 0.00 | 0.00 | 16 | 1019.4 |
| 20260507004005 | 77 | 37 | 4.0 | 9.0 | 0.00 | 0.00 | 0.00 | 16 | 1019.4 |
| 20260507003005 | 76 | 323 | 0.0 | 6.0 | 0.00 | 0.00 | 0.00 | 17 | 1019.4 |
| 20260507002504 | 76 | 53 | 6.0 | 9.0 | 0.00 | 0.00 | 0.00 | 17 | 1019.4 |
| 20260507001504 | 76 | 130 | 1.0 | 5.0 | 0.00 | 0.00 | 0.00 | 16 | 1019.3 |
| 20260507001004 | 77 | 57 | 4.0 | 8.0 | 0.00 | 0.00 | 0.00 | 16 | 1019.4 |
| 20260507000505 | 77 | 31 | 6.0 | 13.0 | 0.00 | 0.00 | 0.00 | 17 | 1019.6 |
| 20260507000005 | 77 | 354 | 0.0 | 7.0 | 0.00 | 0.00 | 0.00 | 17 | 1019.4 |
| 20260506235005 | 77 | 60 | 2.0 | 8.0 | 0.00 | 0.00 | 0.00 | 17 | 1019.4 |
| 20260506234504 | 77 | 81 | 5.0 | 10.0 | 0.00 | 0.00 | 0.00 | 17 | 1019.4 |
| 20260506234004 | 77 | 105 | 3.0 | 7.0 | 0.00 | 0.00 | 0.00 | 16 | 1019.4 |
| 20260506233504 | 77 | 128 | 5.0 | 12.0 | 0.00 | 0.00 | 0.00 | 16 | 1019.5 |
| 20260506233005 | 77 | 135 | 4.0 | 9.0 | 0.00 | 0.00 | 0.00 | 15 | 1019.4 |
| 20260506232504 | 77 | 57 | 6.0 | 10.0 | 0.00 | 0.00 | 0.00 | 18 | 1019.6 |
| 20260506232004 | 77 | 58 | 1.0 | 5.0 | 0.00 | 0.00 | 0.00 | 18 | 1019.6 |
| 20260506231504 | 77 | 70 | 2.0 | 7.0 | 0.00 | 0.00 | 0.00 | 16 | 1019.6 |
| 20260506231005 | 78 | 86 | 5.0 | 9.0 | 0.00 | 0.00 | 0.00 | 18 | 1019.7 |
| 20260506230505 | 77 | 91 | 4.0 | 9.0 | 0.00 | 0.00 | 0.00 | 18 | 1019.7 |
| 20260506230004 | 77 | 40 | 4.0 | 13.0 | 0.00 | 0.00 | 0.00 | 18 | 1019.8 |
| 20260506225504 | 77 | 20 | 2.0 | 9.0 | 0.00 | 0.00 | 0.00 | 17 | 1019.8 |
| 20260506224504 | 77 | 90 | 3.0 | 9.0 | 0.00 | 0.00 | 0.00 | 18 | 1019.9 |
| 20260506224004 | 77 | 27 | 6.0 | 12.0 | 0.00 | 0.00 | 0.00 | 18 | 1020.0 |
| 20260506223504 | 77 | 123 | 2.0 | 7.0 | 0.00 | 0.00 | 0.00 | 18 | 1020.1 |
| 20260506223004 | 76 | 101 | 3.0 | 7.0 | 0.00 | 0.00 | 0.00 | 19 | 1020.2 |
| 20260506222004 | 78 | 25 | 4.0 | 14.0 | 0.00 | 0.00 | 0.00 | 17 | 1020.4 |
| 20260506221504 | 78 | 33 | 3.0 | 10.0 | 0.00 | 0.00 | 0.00 | 16 | 1020.5 |
| 20260506220504 | 78 | 112 | 6.0 | 13.0 | 0.00 | 0.00 | 0.00 | 16 | 1020.6 |
| 20260506220005 | 78 | 39 | 5.0 | 9.0 | 0.00 | 0.00 | 0.00 | 18 | 1020.8 |
| 20260506215504 | 77 | 26 | 6.0 | 10.0 | 0.00 | 0.00 | 0.00 | 19 | 1020.8 |
| 20260506215006 | 77 | 46 | 6.0 | 16.0 | 0.00 | 0.00 | 0.00 | 18 | 1020.9 |
| 20260506214505 | 77 | 7 | 2.0 | 12.0 | 0.00 | 0.00 | 0.00 | 18 | 1020.9 |
| 20260506214004 | 77 | 346 | 4.0 | 12.0 | 0.00 | 0.00 | 0.00 | 18 | 1020.9 |
| 20260506213504 | 77 | 22 | 10.0 | 15.0 | 0.00 | 0.00 | 0.00 | 18 | 1021.0 |
| 20260506212505 | 77 | 27 | 3.0 | 10.0 | 0.00 | 0.00 | 0.00 | 19 | 1021.0 |
| 20260506212005 | 77 | 359 | 6.0 | 10.0 | 0.00 | 0.00 | 0.00 | 18 | 1021.0 |
| 20260506211504 | 77 | 27 | 7.0 | 13.0 | 0.00 | 0.00 | 0.00 | 18 | 1021.0 |
| 20260506211004 | 77 | 55 | 7.0 | 12.0 | 0.00 | 0.00 | 0.00 | 20 | 1021.1 |
| 20260506210505 | 77 | 99 | 5.0 | 9.0 | 0.00 | 0.00 | 0.00 | 20 | 1021.1 |
| 20260506210004 | 77 | 28 | 5.0 | 12.0 | 0.00 | 0.00 | 0.00 | 22 | 1021.1 |
| 20260506205504 | 77 | 357 | 5.0 | 12.0 | 0.00 | 0.00 | 0.00 | 19 | 1021.1 |
| 20260506205004 | 77 | 44 | 7.0 | 13.0 | 0.00 | 0.00 | 0.00 | 20 | 1021.1 |
| 20260506204504 | 77 | 29 | 4.0 | 12.0 | 0.00 | 0.00 | 0.00 | 22 | 1021.2 |
| 20260506203505 | 77 | 47 | 6.0 | 12.0 | 0.00 | 0.00 | 0.00 | 19 | 1021.2 |
| 20260506203004 | 76 | 17 | 6.0 | 12.0 | 0.00 | 0.00 | 0.00 | 23 | 1021.3 |
| 20260506202504 | 76 | 116 | 5.0 | 12.0 | 0.00 | 0.00 | 0.00 | 22 | 1021.2 |
| 20260506202004 | 76 | 120 | 6.0 | 10.0 | 0.00 | 0.00 | 0.00 | 22 | 1021.4 |